VU3EFG Weather Reports


time (UTC)temp
C
wind
direction
speed
KPH
gust
KPH
rain 1hr
cm
rain 24hr
cm
rain mn
cm
humidity
%
barometer
mb
20260505212513 26 292 0.0 3.2 0.00 0.00 0.00 95 1000.7
20260505212013 26 289 3.2 8.0 0.00 0.00 0.00 95 1000.7
20260505211513 26 292 3.2 8.0 0.00 0.00 0.00 95 1001.0
20260505210512 27 292 3.2 8.0 0.00 0.00 0.00 95 1001.1
20260505205513 27 283 3.2 8.0 0.00 0.00 0.00 95 1001.2
20260505204512 27 270 1.6 4.8 0.00 0.00 0.00 95 1001.2
20260505204013 27 277 3.2 8.0 0.00 0.00 0.00 95 1001.3
20260505203513 27 292 0.0 4.8 0.00 0.00 0.00 95 1001.3
20260505203012 27 292 3.2 4.8 0.00 0.00 0.00 95 1001.4
20260505202513 27 292 1.6 4.8 0.00 0.00 0.00 95 1001.4
20260505202012 27 270 3.2 4.8 0.00 0.00 0.00 95 1001.4
20260505201012 27 292 0.0 4.8 0.00 0.00 0.00 95 1001.6
20260505200512 27 304 3.2 4.8 0.00 0.00 0.00 95 1001.8
20260505200012 27 276 3.2 8.0 0.00 0.00 0.00 95 1001.8
20260505194012 27 292 4.8 8.0 0.00 0.00 0.00 95 1002.1
20260505193512 27 310 3.2 11.3 0.00 0.00 0.00 95 1002.1
20260505193012 27 292 3.2 9.7 0.00 0.00 0.00 95 1002.5
20260505192512 27 315 3.2 4.8 0.00 0.00 0.00 95 1002.5
20260505191512 27 283 4.8 8.0 0.00 0.00 0.00 95 1002.5
20260505191012 27 284 4.8 9.7 0.00 0.00 0.00 95 1002.5
20260505190012 27 292 1.6 4.8 0.00 0.00 0.00 95 1002.8
20260505185512 27 294 3.2 8.0 0.00 0.00 0.00 94 1003.0
20260505184513 27 292 1.6 4.8 0.00 0.00 0.00 94 1003.0
20260505184013 27 270 3.2 4.8 0.00 0.00 0.00 94 1003.4
20260505183012 27 282 1.6 4.8 0.00 0.00 0.00 94 1003.5
20260505182512 27 283 3.2 8.0 0.00 0.00 0.00 93 1003.5
20260505182012 27 270 1.6 4.8 0.00 0.00 0.00 93 1003.5
20260505181512 27 284 3.2 4.8 0.00 0.00 0.00 93 1003.6
20260505180512 27 292 3.2 4.8 0.00 0.00 0.00 93 1003.9
20260505175512 27 278 3.2 8.0 0.00 0.00 0.00 93 1004.0
20260505175013 27 292 3.2 4.8 0.00 0.00 0.00 93 1004.0
20260505174512 27 287 4.8 8.0 0.00 0.00 0.00 93 1004.0
20260505174012 27 280 3.2 4.8 0.00 0.00 0.00 93 1004.2
20260505173513 27 292 3.2 8.0 0.00 0.00 0.00 93 1004.2
20260505173012 27 279 4.8 8.0 0.00 0.00 0.00 93 1004.4
20260505172512 27 297 4.8 8.0 0.00 0.00 0.00 93 1004.4
20260505172011 27 308 3.2 8.0 0.00 0.00 0.00 93 1004.4
20260505171512 27 315 3.2 9.7 0.00 0.00 0.00 93 1004.4
20260505170012 28 292 4.8 8.0 0.00 0.00 0.00 93 1004.4
20260505165511 28 320 3.2 3.2 0.00 0.00 0.00 93 1004.3
20260505164512 28 292 3.2 8.0 0.00 0.00 0.00 93 1004.3
20260505164013 28 292 4.8 4.8 0.00 0.00 0.00 93 1004.2
20260505163012 28 325 3.2 3.2 0.00 0.00 0.00 92 1004.1
20260505162512 28 338 3.2 4.8 0.00 0.00 0.00 92 1004.1
20260505162012 28 309 3.2 4.8 0.00 0.00 0.00 92 1004.1
20260505161012 28 292 1.6 4.8 0.00 0.00 0.00 92 1004.1
20260505160512 28 285 3.2 4.8 0.00 0.00 0.00 92 1004.1
20260505153011 28 276 3.2 8.0 0.00 0.00 0.00 90 1003.9
20260505152511 28 292 3.2 4.8 0.00 0.00 0.00 90 1003.9
20260505152012 28 279 3.2 8.0 0.00 0.00 0.00 90 1003.9
20260505151512 28 283 4.8 8.0 0.00 0.00 0.00 90 1003.8
20260505151012 28 280 4.8 9.7 0.00 0.00 0.00 90 1003.8
20260505150512 28 270 3.2 11.3 0.00 0.00 0.00 90 1003.8
20260505140512 29 277 4.8 9.7 0.00 0.00 0.00 85 1002.9
20260505124511 30 273 8.0 12.9 0.00 0.00 0.00 72 1001.9
20260505124012 30 270 6.4 11.3 0.00 0.00 0.00 72 1001.7
20260505123512 31 259 6.4 11.3 0.00 0.00 0.00 71 1001.7
20260505123012 31 283 4.8 8.0 0.00 0.00 0.00 71 1001.3
20260505122511 31 260 4.8 9.7 0.00 0.00 0.00 71 1001.3
20260505122011 31 270 4.8 12.9 0.00 0.00 0.00 70 1001.2
20260505121512 31 276 8.0 11.3 0.00 0.00 0.00 69 1001.1
20260505121011 32 282 4.8 9.7 0.00 0.00 0.00 68 1001.1
20260505120512 32 261 4.8 8.0 0.00 0.00 0.00 67 1001.0
20260505120012 32 270 4.8 11.3 0.00 0.00 0.00 66 1001.0
20260505115012 32 279 8.0 12.9 0.00 0.00 0.00 65 1000.9
20260505114512 32 235 4.8 11.3 0.00 0.00 0.00 64 1000.9
20260505114011 33 269 4.8 8.0 0.00 0.00 0.00 63 1000.7
20260505113511 32 270 3.2 9.7 0.00 0.00 0.00 64 1000.7
20260505113012 33 264 4.8 9.7 0.00 0.00 0.00 64 1000.6
20260505112511 33 264 4.8 12.9 0.00 0.00 0.00 65 1000.6
20260505112011 32 264 4.8 9.7 0.00 0.00 0.00 66 1000.6
20260505111012 33 225 6.4 11.3 0.00 0.00 0.00 64 1000.6
20260505110511 33 273 6.4 9.7 0.00 0.00 0.00 64 1000.5
20260505102012 33 227 4.8 8.0 0.00 0.00 0.00 65 1000.7
20260505101011 35 225 1.6 11.3 0.00 0.00 0.00 63 1000.8
20260505100511 34 236 3.2 8.0 0.00 0.00 0.00 63 1000.8
20260505095511 34 212 3.2 4.8 0.00 0.00 0.00 62 1000.9
20260505095011 35 232 1.6 4.8 0.00 0.00 0.00 61 1000.9
20260505094011 35 235 3.2 4.8 0.00 0.00 0.00 59 1001.1
20260505093011 36 209 3.2 16.1 0.00 0.00 0.00 60 1001.3
20260505092512 36 277 4.8 9.7 0.00 0.00 0.00 59 1001.3
20260505092012 36 292 3.2 8.0 0.00 0.00 0.00 60 1001.3
20260505091011 35 244 4.8 12.9 0.00 0.00 0.00 61 1001.6
20260505090512 36 233 4.8 9.7 0.00 0.00 0.00 62 1001.8
20260505085512 35 174 4.8 8.0 0.00 0.00 0.00 63 1002.1
20260505084511 35 231 4.8 11.3 0.00 0.00 0.00 63 1002.1
20260505084011 36 266 4.8 8.0 0.00 0.00 0.00 62 1002.4
20260505083511 36 222 4.8 9.7 0.00 0.00 0.00 61 1002.4
20260505083011 36 220 4.8 8.0 0.00 0.00 0.00 59 1002.6
20260505082511 36 245 4.8 12.9 0.00 0.00 0.00 59 1002.6
20260505082011 36 207 6.4 14.5 0.00 0.00 0.00 61 1002.6
20260505081511 36 168 6.4 11.3 0.00 0.00 0.00 59 1002.9
20260505081011 36 279 3.2 8.0 0.00 0.00 0.00 60 1002.9
20260505080511 36 179 4.8 8.0 0.00 0.00 0.00 60 1003.1
20260505080011 36 202 3.2 9.7 0.00 0.00 0.00 61 1003.1
20260505075510 35 158 3.2 9.7 0.00 0.00 0.00 62 1003.2
20260505075011 36 90 4.8 9.7 0.00 0.00 0.00 60 1003.3
20260505074511 35 205 8.0 11.3 0.00 0.00 0.00 60 1003.3
20260505074011 36 228 6.4 11.3 0.00 0.00 0.00 59 1003.5
20260505073511 36 249 6.4 14.5 0.00 0.00 0.00 59 1003.5
20260505073011 36 235 4.8 11.3 0.00 0.00 0.00 60 1003.8
20260505072511 36 275 8.0 12.9 0.00 0.00 0.00 60 1003.8
20260505072011 36 224 4.8 9.7 0.00 0.00 0.00 60 1003.8
20260505071011 36 189 6.4 12.9 0.00 0.00 0.00 61 1004.0
20260505070511 36 185 4.8 8.0 0.00 0.00 0.00 61 1004.2
20260505070011 35 213 4.8 9.7 0.00 0.00 0.00 62 1004.2
20260505064511 35 185 4.8 9.7 0.00 0.00 0.00 63 1004.3
20260505064011 35 235 4.8 8.0 0.00 0.00 0.00 63 1004.5
20260505063511 35 261 4.8 8.0 0.00 0.00 0.00 64 1004.5
20260505063011 34 193 8.0 11.3 0.00 0.00 0.00 66 1004.7
20260505062511 34 188 8.0 14.5 0.00 0.00 0.00 65 1004.7
20260505062011 34 257 6.4 11.3 0.00 0.00 0.00 66 1004.7
20260505061511 34 154 4.8 8.0 0.00 0.00 0.00 65 1004.8
20260505061010 33 270 4.8 11.3 0.00 0.00 0.00 67 1004.8
20260505060511 33 283 8.0 9.7 0.00 0.00 0.00 67 1004.8
20260505060011 33 270 4.8 9.7 0.00 0.00 0.00 67 1004.8
20260505055510 33 224 6.4 11.3 0.00 0.00 0.00 67 1004.9
20260505055010 33 205 4.8 9.7 0.00 0.00 0.00 67 1004.9
20260505054510 33 218 4.8 9.7 0.00 0.00 0.00 68 1004.9
20260505053511 33 198 8.0 11.3 0.00 0.00 0.00 66 1004.9
20260505052510 33 261 4.8 8.0 0.00 0.00 0.00 66 1004.9
20260505052010 33 220 3.2 8.0 0.00 0.00 0.00 67 1004.9
20260505051512 33 216 6.4 11.3 0.00 0.00 0.00 67 1004.9
20260505051012 33 202 4.8 11.3 0.00 0.00 0.00 66 1004.9
20260505050513 33 188 3.2 9.7 0.00 0.00 0.00 65 1004.8
20260505041010 35 338 1.6 4.8 0.00 0.00 0.00 58 1004.9
20260505040511 35 349 3.2 9.7 0.00 0.00 0.00 58 1004.9
20260505040012 36 344 3.2 9.7 0.00 0.00 0.00 56 1004.9
20260505035511 36 270 4.8 8.0 0.00 0.00 0.00 58 1004.9
20260505034510 35 306 4.8 8.0 0.00 0.00 0.00 61 1004.9
20260505033511 35 293 4.8 8.0 0.00 0.00 0.00 62 1004.9
20260505032511 34 292 3.2 9.7 0.00 0.00 0.00 64 1004.8
20260505032010 33 283 3.2 8.0 0.00 0.00 0.00 66 1004.8
20260505031011 34 303 4.8 9.7 0.00 0.00 0.00 64 1004.9
20260505030511 34 292 3.2 4.8 0.00 0.00 0.00 64 1004.9
20260505030011 33 292 0.0 3.2 0.00 0.00 0.00 66 1004.9
20260505025010 33 293 1.6 4.8 0.00 0.00 0.00 66 1004.7
20260505024510 33 331 3.2 3.2 0.00 0.00 0.00 69 1004.7
20260505024011 32 315 3.2 4.8 0.00 0.00 0.00 72 1004.5
20260505023011 31 292 4.8 4.8 0.00 0.00 0.00 76 1004.4
20260505022510 30 326 3.2 4.8 0.00 0.00 0.00 78 1004.4
20260505022010 29 305 3.2 4.8 0.00 0.00 0.00 82 1004.3
20260505021510 28 292 3.2 3.2 0.00 0.00 0.00 83 1004.2
20260505021011 28 292 0.0 0.0 0.00 0.00 0.00 86 1004.2
20260505020011 27 292 1.6 3.2 0.00 0.00 0.00 89 1004.0
20260505015510 27 292 1.6 3.2 0.00 0.00 0.00 90 1004.0
20260505015010 26 310 0.0 0.0 0.00 0.00 0.00 90 1004.0
20260505014511 26 300 0.0 0.0 0.00 0.00 0.00 91 1004.0
20260505014010 26 315 0.0 0.0 0.00 0.00 0.00 91 1003.8
20260505013510 26 315 0.0 1.6 0.00 0.00 0.00 90 1003.8
20260505013010 26 303 3.2 3.2 0.00 0.00 0.00 91 1003.6
20260505012510 26 338 1.6 3.2 0.00 0.00 0.00 92 1003.6
20260505012011 26 312 3.2 4.8 0.00 0.00 0.00 92 1003.6
20260505011511 25 309 0.0 0.0 0.00 0.00 0.00 93 1003.8
20260505011010 25 315 0.0 0.0 0.00 0.00 0.00 94 1003.8
20260505010510 25 338 0.0 0.0 0.00 0.00 0.00 95 1003.7
20260505010010 25 315 0.0 0.0 0.00 0.00 0.00 96 1003.7
20260505005510 25 315 0.0 0.0 0.00 0.00 0.00 96 1003.7
20260505005010 25 338 0.0 0.0 0.00 0.00 0.00 97 1003.7
20260505004510 25 326 0.0 0.0 0.00 0.00 0.00 97 1003.7
20260505004010 25 317 0.0 0.0 0.00 0.00 0.00 97 1003.4
20260505003511 25 338 0.0 0.0 0.00 0.00 0.00 97 1003.4
20260505003010 25 321 0.0 0.0 0.00 0.00 0.00 97 1003.5
20260505002510 25 292 0.0 0.0 0.00 0.00 0.00 97 1003.5
20260505002010 25 315 0.0 0.0 0.00 0.00 0.00 97 1003.4
20260505001010 25 292 0.0 0.0 0.00 0.00 0.00 97 1003.4
20260505000511 25 292 0.0 0.0 0.00 0.00 0.00 97 1003.4
20260505000010 25 292 0.0 0.0 0.00 0.00 0.00 97 1003.4
20260504235010 25 328 0.0 0.0 0.00 0.00 0.00 96 1003.3
20260504234510 25 315 0.0 0.0 0.00 0.00 0.00 96 1003.3
20260504234010 25 315 0.0 0.0 0.00 0.00 0.00 96 1003.2
20260504233510 25 315 0.0 0.0 0.00 0.00 0.00 96 1003.2
20260504233010 25 315 0.0 0.0 0.00 0.00 0.00 96 1003.0
20260504232510 25 315 0.0 0.0 0.00 0.00 0.00 96 1003.0
20260504232010 25 315 0.0 0.0 0.00 0.00 0.00 96 1002.8
20260504231510 25 315 0.0 0.0 0.00 0.00 0.00 96 1002.8
20260504231010 25 328 0.0 0.0 0.00 0.00 0.00 96 1002.8
20260504230511 25 315 0.0 0.0 0.00 0.00 0.00 96 1002.7
20260504230010 25 315 0.0 0.0 0.00 0.00 0.00 96 1002.7
20260504225510 25 315 0.0 0.0 0.00 0.00 0.00 95 1002.6
20260504224510 25 315 0.0 0.0 0.00 0.00 0.00 95 1002.6
20260504223510 25 338 0.0 0.0 0.00 0.00 0.00 94 1002.4
20260504223010 25 338 0.0 0.0 0.00 0.00 0.00 94 1002.2
20260504222510 25 338 0.0 0.0 0.00 0.00 0.00 94 1002.2
20260504222009 25 338 0.0 0.0 0.00 0.00 0.00 94 1002.2
20260504221510 25 3 3.2 4.8 0.00 0.00 0.00 94 1002.1
20260504221010 25 297 0.0 3.2 0.00 0.00 0.00 94 1002.1
20260504220510 25 292 1.6 3.2 0.00 0.00 0.00 94 1002.0
20260504215510 25 292 0.0 3.2 0.00 0.00 0.00 94 1001.8
20260504215010 26 321 0.0 3.2 0.00 0.00 0.00 94 1001.8
20260504214510 25 315 0.0 3.2 0.00 0.00 0.00 94 1001.8
20260504214010 25 328 3.2 3.2 0.00 0.00 0.00 94 1002.0
20260504213511 25 292 0.0 0.0 0.00 0.00 0.00 93 1002.0